Regional Weather Roundup
Issued by NWS Kansas City/Pleasant Hill, MO

Home | Current Version | Previous Version | Text Only | Print | Product List | Glossary On
Versions: 1 2 3 4 5 6 7 8 9 10 11 12 13 14 15 16 17 18 19 20 21 22 23 24 25 26 27 28 29 30 31 32 33 34 35 36 37 38 39 40 41 42 43 44 45 46 47 48 49 50
000
ASUS43 KEAX 011110
RWREAX

WEATHER ROUNDUP FOR EASTERN KANSAS AND NORTHWEST MISSOURI
NATIONAL WEATHER SERVICE KANSAS CITY/PLEASANT HILL MO
600 AM CDT SAT AUG 01 2015

KSZ040-057-103>105-MOZ028-029-037-043-011200-
...KANSAS CITY METROPOLITAN AREA...

CITY           SKY/WX    TMP DP  RH WIND       PRES   REMARKS
K.C. INTL      PTCLDY    69  66  90 S7        30.04S
K.C. DOWNTOWN  CLEAR     75  68  78 CALM      30.04R
LEES SUMMIT    CLEAR     73  69  87 SW6       30.06S
OLATHE - IXD   CLEAR     72  70  93 S3        30.07S
OLATHE - OJC   CLEAR     69  67  93 S3        30.06S
LAWRENCE       CLEAR     68  66  93 CALM      30.05S

$$

MOZ001>008-011>017-020>025-030>033-038>040-044>046-053-054-011200-
...NORTHERN AND CENTRAL MISSOURI...

CITY           SKY/WX    TMP DP  RH WIND       PRES   REMARKS
ST. JOSEPH     CLEAR     69  68  96 CALM      30.04S
MOSBY          SUNNY     70  70 100 CALM      30.04S
WARRENSBURG    CLEAR     68  64  88 S3        30.05S
WHITEMAN AFB   CLEAR     68  65  89 SW6       30.04S
CLINTON        CLEAR     70  68  94 CALM      30.06S
SEDALIA        CLEAR     70  66  87 SW6       30.06S
WARSAW         NOT AVBL
CHILLICOTHE      N/A     69  67  93 CALM      30.05S
KIRKSVILLE     PTCLDY    69  63  81 E3        30.06S

$$

MOZ041-047>049-056>058-063>065-088>090-097-011200-
...EASTERN AND SOUTHERN MISSOURI...

CITY           SKY/WX    TMP DP  RH WIND       PRES   REMARKS
ST. LOUIS INTL PTCLDY    74  67  78 CALM      30.04S
SPIRIT OF STL  CLEAR     68  68 100 CALM      30.03R
COLUMBIA       CLEAR     71  67  87 SW3       30.05R
JEFFERSON CITY CLEAR     68  66  93 CALM      30.04S
ROLLA          CLEAR     65  63  93 SW6       30.05F
OSAGE BEACH    CLEAR     64  61  88 CALM      30.06S
SPRINGFIELD    CLEAR     64  59  83 S5        30.08S
BRANSON        CLEAR     66  61  82 CALM      30.11R
JOPLIN         CLEAR     61  58  90 CALM      30.09S
WEST PLAINS    CLEAR     65  60  84 CALM      30.10R

$$

IAZ060-094-KSZ022-034>040-054-083-096-NEZ052-066-093-011200-
...KANSAS...SOUTHEAST NEBRASKA AND IOWA...

CITY           SKY/WX    TMP DP  RH WIND       PRES   REMARKS
TOPEKA         CLEAR     72  68  87 CALM      30.05S
MANHATTAN      CLEAR     71  69  93 CALM      30.05S
EMPORIA        CLEAR     69  69 100 SW5       30.07S FOG
CHANUTE        CLEAR     66  66 100 S6        30.08S FOG
WICHITA        PTCLDY    73  71  93 CALM      30.08S
OMAHA          PTCLDY    69  66  90 S5        30.03F
LINCOLN        CLOUDY    65  63  93 CALM      30.05S
FALLS CITY     CLEAR     69  68  96 E3        30.03S
LAMONI         CLEAR     68  64  87 CALM      30.05S
DES MOINES     PTCLDY    69  64  84 CALM      30.02F

$$



USA.gov is the U.S. government's official web portal to all federal, state and local government web resources and services.